Stations météo

réclame
Mon MeteoGroup
Kleine Brogel, Belgique (6479): Température de l'air & dewpoint: 16.04.2019 16:00:00 - 22.04.2019 16:00:00 (CEST)Kleine Brogel, Belgique (6479): Vitesse du vent & gusts: 16.04.2019 16:00:00 - 22.04.2019 16:00:00 (CEST)Kleine Brogel, Belgique (6479): Direction du vent: 16.04.2019 16:00:00 - 22.04.2019 16:00:00 (CEST)Kleine Brogel, Belgique (6479): reduced air pressure: 16.04.2019 16:00:00 - 22.04.2019 16:00:00 (CEST)Kleine Brogel, Belgique (6479): visibility: 16.04.2019 16:00:00 - 22.04.2019 16:00:00 (CEST)
Date & Time tt [°C] td [°C] ff [km/h] ff [knt] fx [km/h] fx [knt] dd ppp [hPa] vv [km]
22.04.2019 16:00:00 25,1 0,8 18 10 32 18 E 1006,2 20
22.04.2019 15:00:00 24,5 0,4 18 10 36 19 ESE 1007,1 20
22.04.2019 14:00:00 24,7 0,8 25 14 - - E 1007,7 20
22.04.2019 13:00:00 23,4 0,8 18 10 32 18 E 1008,6 20
22.04.2019 12:00:00 22,1 4,7 14 8 22 12 ENE 1009,5 20
22.04.2019 11:00:00 20,2 4,1 11 6 - - E 1010,2 20
22.04.2019 10:00:00 17,8 5,3 7 4 18 10 E 1010,7 19
22.04.2019 09:00:00 14,8 4,4 11 6 18 10 E 1011,2 20
22.04.2019 08:00:00 12,5 4,3 7 4 - - E 1011,3 20
22.04.2019 07:00:00 10,5 3,6 4 2 7 4 N 1011,5 19
22.04.2019 06:00:00 9,7 3,4 4 2 4 2 N 1011,8 18
22.04.2019 05:00:00 8,5 2,8 4 2 - - N 1012,5 19
22.04.2019 04:00:00 7,1 1,8 4 2 4 2 N 1013,1 19
22.04.2019 03:00:00 8,4 2,3 0 0 0 0 N 1013,7 20
22.04.2019 02:00:00 9,8 2,2 4 2 - - N 1014,1 20
22.04.2019 01:00:00 11,5 1,8 4 2 4 2 N 1014,7 20
22.04.2019 00:00:00 12,6 1,4 4 2 7 4 N 1015,1 20
21.04.2019 23:00:00 14,9 1,6 7 4 - - NE 1015,5 20
21.04.2019 22:00:00 15,3 1,7 4 2 7 4 N 1015,7 20
21.04.2019 21:00:00 18,1 1,4 4 2 14 8 N 1015,7 20
21.04.2019 20:00:00 21,3 1,0 7 4 - - ENE 1015,7 20
21.04.2019 19:00:00 23,2 0,5 11 6 18 10 ENE 1016,0 20
21.04.2019 18:00:00 24,0 0,3 7 4 25 14 E 1016,7 20
21.04.2019 17:00:00 24,1 -0,6 7 4 - - E 1017,3 20
21.04.2019 16:00:00 24,3 0,0 11 6 22 12 E 1018,1 20
21.04.2019 15:00:00 24,9 1,9 11 6 25 14 E 1019,0 20
21.04.2019 14:00:00 23,7 2,5 14 8 - - E 1019,7 20
21.04.2019 13:00:00 22,0 2,9 11 6 22 12 E 1020,5 19
21.04.2019 12:00:00 21,1 3,4 14 8 22 12 E 1021,3 20
21.04.2019 11:00:00 19,3 4,4 11 6 - - E 1022,1 20
21.04.2019 10:00:00 16,7 3,9 7 4 14 8 E 1022,6 19
21.04.2019 09:00:00 13,2 2,3 7 4 11 6 ENE 1022,8 20
21.04.2019 08:00:00 8,9 1,9 4 2 - - N 1023,2 17
21.04.2019 07:00:00 7,4 0,6 4 2 7 4 N 1023,2 20
21.04.2019 06:00:00 7,9 0,5 4 2 11 6 N 1023,6 20
21.04.2019 05:00:00 10,6 0,5 7 4 - - NE 1024,2 16
21.04.2019 04:00:00 11,5 0,4 7 4 14 8 ENE 1024,5 20
21.04.2019 03:00:00 12,6 0,9 11 6 18 10 NE 1025,0 20
21.04.2019 02:00:00 11,8 2,4 7 4 - - NE 1025,7 20
21.04.2019 01:00:00 13,8 2,7 7 4 14 8 NE 1026,0 20
21.04.2019 00:00:00 15,5 2,9 11 6 14 8 NE 1026,4 20
20.04.2019 23:00:00 17,0 3,1 11 6 - - NE 1026,2 20
20.04.2019 22:00:00 18,7 3,0 14 8 18 10 ENE 1026,2 20
20.04.2019 21:00:00 19,2 1,4 14 8 18 10 NE 1025,9 20
20.04.2019 20:00:00 21,9 0,2 11 6 - - NE 1025,7 20
20.04.2019 19:00:00 23,6 -0,9 14 8 22 12 NE 1026,0 20
20.04.2019 18:00:00 24,8 0,8 11 6 25 14 NE 1026,2 20
20.04.2019 17:00:00 25,0 0,4 7 4 - - ENE 1026,7 20
20.04.2019 16:00:00 25,7 0,5 11 6 29 16 N 1027,2 20
20.04.2019 15:00:00 24,3 1,3 11 6 25 14 E 1027,9 20
20.04.2019 14:00:00 25,5 1,1 11 6 - - E 1028,4 20
20.04.2019 13:00:00 24,4 3,7 11 6 22 12 ENE 1028,9 20
20.04.2019 12:00:00 22,0 5,0 7 4 18 10 ENE 1029,2 20
20.04.2019 11:00:00 20,5 5,2 11 6 - - ENE 1029,5 20
20.04.2019 10:00:00 17,9 5,9 14 8 18 10 ENE 1029,7 20
20.04.2019 09:00:00 14,6 5,4 7 4 11 6 ENE 1029,7 19
20.04.2019 08:00:00 8,3 4,3 4 2 - - N 1029,5 20
20.04.2019 07:00:00 5,3 3,0 4 2 4 2 N 1029,2 19
20.04.2019 06:00:00 5,3 2,7 4 2 4 2 N 1029,0 20
20.04.2019 05:00:00 5,9 2,5 0 0 - - N 1029,0 20
20.04.2019 04:00:00 7,0 2,9 0 0 0 0 N 1028,9 20
20.04.2019 03:00:00 8,3 3,3 0 0 0 0 N 1028,7 20
20.04.2019 02:00:00 9,6 3,5 4 2 - - N 1029,0 20
20.04.2019 01:00:00 10,8 3,0 2 1 4 2 - 1029,0 10
20.04.2019 00:00:00 13,5 3,0 4 2 14 8 N 1028,9 20
19.04.2019 23:00:00 15,1 2,8 7 4 - - NE 1028,7 20
19.04.2019 22:00:00 17,5 2,5 7 4 18 10 NNE 1028,2 20
19.04.2019 21:00:00 18,1 2,2 7 4 14 8 NNE 1027,7 20
19.04.2019 20:00:00 21,4 1,8 4 2 - - N 1027,2 20
19.04.2019 19:00:00 23,6 0,2 7 4 18 10 E 1026,9 20
19.04.2019 18:00:00 24,0 0,8 7 4 25 14 E 1027,0 20
19.04.2019 17:00:00 23,7 -0,3 11 6 - - ESE 1027,0 20
19.04.2019 16:00:00 23,7 1,6 14 8 29 16 ESE 1027,2 20
19.04.2019 15:00:00 23,4 2,0 14 8 32 18 E 1027,4 20
19.04.2019 14:00:00 23,1 2,6 18 10 - - E 1027,5 20
19.04.2019 13:00:00 22,3 3,3 22 12 32 18 ENE 1027,7 20
19.04.2019 12:00:00 20,5 3,9 15 8 25 14 ENE 1028,0 10
19.04.2019 11:00:00 18,8 4,3 14 8 - - E 1028,4 20
19.04.2019 10:00:00 16,5 3,5 18 10 25 14 E 1028,2 20
19.04.2019 09:00:00 13,8 4,0 14 8 22 12 ENE 1028,0 20
19.04.2019 08:00:00 11,2 3,5 7 4 - - ENE 1027,9 20
19.04.2019 07:00:00 9,7 2,6 7 4 11 6 ENE 1027,4 15
19.04.2019 06:00:00 9,7 2,7 7 4 7 4 ENE 1027,0 20
19.04.2019 05:00:00 10,2 2,5 4 2 - - N 1026,7 20
19.04.2019 04:00:00 11,3 2,6 4 2 11 6 N 1026,5 20
19.04.2019 03:00:00 11,8 2,6 7 4 14 8 E 1026,4 20
19.04.2019 02:00:00 12,5 2,7 11 6 - - ENE 1026,4 20
19.04.2019 01:00:00 12,7 2,6 11 6 14 8 ENE 1026,2 20
19.04.2019 00:00:00 13,3 2,4 11 6 18 10 ENE 1025,9 20
18.04.2019 23:00:00 15,3 2,1 11 6 - - ENE 1025,4 20
18.04.2019 22:00:00 16,0 2,2 11 6 22 12 ENE 1024,7 20
18.04.2019 21:00:00 16,2 3,3 7 4 18 10 ENE 1024,4 20
18.04.2019 20:00:00 20,6 2,4 11 6 - - E 1023,6 20
18.04.2019 19:00:00 21,7 1,5 11 6 32 18 E 1023,2 20
18.04.2019 18:00:00 22,1 1,2 18 10 32 18 E 1023,2 20
18.04.2019 17:00:00 22,3 0,9 14 8 - - E 1023,3 20
18.04.2019 16:00:00 21,9 2,4 18 10 32 18 E 1023,7 20
18.04.2019 15:00:00 21,2 3,2 22 12 40 21 E 1023,8 20
18.04.2019 14:00:00 20,9 3,8 22 12 - - E 1024,2 20
18.04.2019 13:00:00 19,7 4,3 18 10 36 19 E 1024,7 20
18.04.2019 12:00:00 18,9 4,1 22 12 32 18 E 1025,0 20
18.04.2019 11:00:00 17,4 4,7 18 10 - - E 1025,2 20
18.04.2019 10:00:00 15,5 4,0 14 8 29 16 E 1025,2 20
18.04.2019 09:00:00 13,3 3,2 11 6 22 12 E 1024,7 20
18.04.2019 08:00:00 11,8 3,2 11 6 - - E 1024,5 20
18.04.2019 07:00:00 9,8 3,3 4 2 14 8 N 1024,0 20
18.04.2019 06:00:00 10,1 4,1 7 4 14 8 ENE 1023,5 19
18.04.2019 05:00:00 10,3 5,2 7 4 - - ENE 1023,7 20
18.04.2019 04:00:00 9,4 6,0 7 4 7 4 NE 1023,6 15
18.04.2019 03:00:00 9,5 7,4 4 2 7 4 N 1023,5 12
18.04.2019 02:00:00 8,8 7,2 4 2 - - - 1023,6 10
18.04.2019 01:00:00 8,9 6,9 4 2 7 4 N 1023,6 12
18.04.2019 00:00:00 10,0 7,7 4 2 7 4 N 1023,3 13
17.04.2019 23:00:00 8,8 7,1 4 2 - - N 1023,2 14
17.04.2019 22:00:00 10,3 7,6 4 2 7 4 N 1023,0 16
17.04.2019 21:00:00 11,6 7,9 7 4 7 4 N 1022,7 16
17.04.2019 20:00:00 14,1 8,4 4 2 - - N 1022,3 20
17.04.2019 19:00:00 15,3 8,0 7 4 11 6 NE 1022,2 18
17.04.2019 18:00:00 15,6 6,9 4 2 14 8 N 1022,3 17
17.04.2019 17:00:00 15,2 8,8 7 4 - - E 1022,2 12
17.04.2019 16:00:00 14,5 8,4 7 4 11 6 N 1022,3 12
17.04.2019 15:00:00 14,8 8,2 7 4 14 8 E 1022,2 12
17.04.2019 14:00:00 13,4 9,0 4 2 - - N 1022,2 12
17.04.2019 13:00:00 13,5 8,7 4 2 11 6 N 1022,1 12
17.04.2019 12:00:00 13,6 8,9 4 2 11 6 N 1022,0 12
17.04.2019 11:00:00 13,3 9,2 4 2 - - N 1021,7 12
17.04.2019 10:00:00 11,8 9,1 4 2 11 6 N 1021,5 12
17.04.2019 09:00:00 11,0 8,7 4 2 11 6 N 1021,1 12
17.04.2019 08:00:00 10,3 8,5 4 2 - - N 1020,7 12
17.04.2019 07:00:00 10,0 8,4 4 2 7 4 N 1020,1 19
17.04.2019 06:00:00 10,0 8,6 4 2 7 4 N 1019,7 20
17.04.2019 05:00:00 10,3 8,7 4 2 - - N 1019,7 12
17.04.2019 04:00:00 11,1 7,7 4 2 7 4 N 1019,7 20
17.04.2019 03:00:00 10,8 7,5 4 2 7 4 N 1019,3 20
17.04.2019 02:00:00 10,3 7,2 4 2 - - N 1019,3 20
17.04.2019 01:00:00 10,7 6,9 4 2 4 2 N 1019,2 20
17.04.2019 00:00:00 11,6 7,2 4 2 11 6 N 1019,2 20
16.04.2019 23:00:00 12,1 7,5 7 4 - - N 1018,7 20
16.04.2019 22:00:00 13,0 7,3 4 2 14 8 N 1018,7 20
16.04.2019 21:00:00 13,5 7,1 7 4 18 10 S 1018,1 20
16.04.2019 20:00:00 14,4 6,5 11 6 - - SSW 1017,2 20
16.04.2019 19:00:00 16,0 6,1 11 6 25 14 SSW 1016,5 20
16.04.2019 18:00:00 17,1 5,2 18 10 29 16 SSW 1015,8 20
16.04.2019 17:00:00 18,7 4,9 14 8 - - S 1015,2 20
16.04.2019 16:00:00 19,5 4,0 7 4 25 14 SSE 1015,1 20

tt = Température de l'air
td = dewpoint
ff = Vitesse du vent
fx = gusts
dd = Direction du vent
ppp = reduced air pressure
vv = visibility

stations d'obs. à proximité